User: anonymous   Login
Location: Newark
(26.8229°N, 81.7649°W)
Time: 07:24:38
(UTC+00:00)
Language:

Hubble Space Telescope - Orbit

View from above orbital plane
View from above orbital plane
View from above satellite
View from above satellite

Ground track
Ground track

The orbit data is extracted from the following two-line orbital elements,

1 20580U 90037B   20051.91781576 +.00000467 +00000-0 +17467-4 0  9992
2 20580 028.4707 017.0307 0002443 264.0933 129.2379 15.09341055438194
Epoch (UTC): 20 February 2020 22:01:39
Eccentricity: 0.0002443
inclination: 28.4707°
perigee height: 536 km
apogee height: 540 km
right ascension of ascending node: 17.0307°
argument of perigee: 264.0933°
revolutions per day: 15.09341055
mean anomaly at epoch: 129.2379°
orbit number at epoch: 43819

The dashed part of the orbit path shows where the satellite is in the earth's shadow,  

DLR